Time,TemperatureF,DewpointF,PressureIn,WindDirection,WindDirectionDegrees,WindSpeedMPH,WindSpeedGustMPH,Humidity,HourlyPrecipIn,Conditions,Clouds,dailyrainin,SoftwareType,DateUTC
2013-05-25 00:03:00,58.6,49.2,30.09,SSE,150,14.0,18.0,71,0.00,,,0.09,Wunderground v.1.15,2013-05-25 05:03:00,
2013-05-25 00:08:00,58.7,48.9,30.08,SSE,151,13.0,18.0,70,0.00,,,0.00,Wunderground v.1.15,2013-05-25 05:08:00,
2013-05-25 00:13:00,58.7,48.9,30.08,SSE,149,12.0,13.0,70,0.00,,,0.00,Wunderground v.1.15,2013-05-25 05:13:00,
2013-05-25 00:18:00,58.6,48.8,30.08,SE,143,14.0,15.0,70,0.00,,,0.00,Wunderground v.1.15,2013-05-25 05:18:00,
2013-05-25 00:23:00,58.5,48.7,30.07,SE,145,9.0,17.0,70,0.00,,,0.00,Wunderground v.1.15,2013-05-25 05:23:00,
2013-05-25 00:28:00,58.5,48.7,30.07,SSE,150,11.0,17.0,70,0.00,,,0.00,Wunderground v.1.15,2013-05-25 05:28:00,
2013-05-25 00:34:00,58.3,48.9,30.07,SSE,149,11.0,15.0,71,0.00,,,0.00,Wunderground v.1.15,2013-05-25 05:34:00,
2013-05-25 00:38:00,58.3,48.9,30.07,SE,137,13.0,16.0,71,0.00,,,0.00,Wunderground v.1.15,2013-05-25 05:38:00,
2013-05-25 00:43:00,58.3,48.6,30.07,SSE,150,15.0,15.0,70,0.00,,,0.00,Wunderground v.1.15,2013-05-25 05:43:00,
2013-05-25 00:49:00,58.2,48.8,30.06,SE,145,15.0,15.0,71,0.00,,,0.00,Wunderground v.1.15,2013-05-25 05:49:00,
2013-05-25 00:54:00,58.2,48.5,30.06,SE,141,10.0,16.0,70,0.00,,,0.00,Wunderground v.1.15,2013-05-25 05:54:00,
2013-05-25 00:58:00,58.0,48.6,30.05,SE,136,13.0,16.0,71,0.00,,,0.00,Wunderground v.1.15,2013-05-25 05:58:00,
2013-05-25 01:03:00,57.8,48.5,30.04,SE,134,17.0,17.0,71,0.00,,,0.00,Wunderground v.1.15,2013-05-25 06:03:00,
2013-05-25 01:09:00,57.7,48.7,30.03,SE,146,14.0,17.0,72,0.00,,,0.00,Wunderground v.1.15,2013-05-25 06:09:00,
2013-05-25 01:14:00,57.6,48.6,30.03,SE,135,10.0,14.0,72,0.00,,,0.00,Wunderground v.1.15,2013-05-25 06:14:00,
2013-05-25 01:19:00,57.6,48.3,30.03,SSE,161,16.0,16.0,71,0.00,,,0.00,Wunderground v.1.15,2013-05-25 06:19:00,
2013-05-25 01:24:00,57.7,48.4,30.04,SSE,148,15.0,17.0,71,0.00,,,0.00,Wunderground v.1.15,2013-05-25 06:24:00,
2013-05-25 01:29:00,57.7,48.4,30.04,SSE,148,12.0,17.0,71,0.00,,,0.00,Wunderground v.1.15,2013-05-25 06:29:00,
2013-05-25 01:34:00,57.5,48.2,30.05,SSE,163,11.0,12.0,71,0.00,,,0.00,Wunderground v.1.15,2013-05-25 06:34:00,
2013-05-25 01:40:00,57.5,48.2,30.04,SE,134,13.0,13.0,71,0.00,,,0.00,Wunderground v.1.15,2013-05-25 06:40:00,
2013-05-25 01:45:00,57.4,48.1,30.05,SSE,147,13.0,14.0,71,0.00,,,0.00,Wunderground v.1.15,2013-05-25 06:45:00,
2013-05-25 01:51:00,57.3,48.0,30.05,SSE,156,11.0,13.0,71,0.00,,,0.00,Wunderground v.1.15,2013-05-25 06:51:00,
2013-05-25 01:56:00,57.3,48.0,30.05,SE,140,11.0,16.0,71,0.00,,,0.00,Wunderground v.1.15,2013-05-25 06:56:00,
2013-05-25 02:01:00,57.3,48.0,30.05,SE,143,6.0,13.0,71,0.00,,,0.00,Wunderground v.1.15,2013-05-25 07:01:00,
2013-05-25 02:06:00,57.2,47.9,30.05,SSE,150,6.0,15.0,71,0.00,,,0.00,Wunderground v.1.15,2013-05-25 07:06:00,
2013-05-25 02:11:00,57.2,47.9,30.04,SSE,155,11.0,14.0,71,0.00,,,0.00,Wunderground v.1.15,2013-05-25 07:11:00,
2013-05-25 02:16:00,57.1,47.8,30.04,SSE,155,5.0,14.0,71,0.00,,,0.00,Wunderground v.1.15,2013-05-25 07:16:00,
2013-05-25 02:21:00,57.0,47.7,30.04,SSE,148,9.0,11.0,71,0.00,,,0.00,Wunderground v.1.15,2013-05-25 07:21:00,
2013-05-25 02:26:00,56.7,47.8,30.04,SSE,152,13.0,15.0,72,0.00,,,0.00,Wunderground v.1.15,2013-05-25 07:26:00,
2013-05-25 02:31:00,56.6,47.7,30.04,SE,138,8.0,13.0,72,0.00,,,0.00,Wunderground v.1.15,2013-05-25 07:31:00,
2013-05-25 02:36:00,56.5,47.6,30.03,SE,135,7.0,16.0,72,0.00,,,0.00,Wunderground v.1.15,2013-05-25 07:36:00,
2013-05-25 02:41:00,56.4,47.5,30.03,SSE,148,7.0,10.0,72,0.00,,,0.00,Wunderground v.1.15,2013-05-25 07:41:00,
2013-05-25 02:46:00,56.4,47.5,30.03,SSE,155,9.0,13.0,72,0.00,,,0.00,Wunderground v.1.15,2013-05-25 07:46:00,
2013-05-25 02:51:00,56.6,47.3,30.03,SSE,147,11.0,15.0,71,0.00,,,0.00,Wunderground v.1.15,2013-05-25 07:51:00,
2013-05-25 02:56:00,56.6,47.7,30.03,SE,142,13.0,15.0,72,0.00,,,0.00,Wunderground v.1.15,2013-05-25 07:56:00,
2013-05-25 03:01:00,56.6,47.7,30.03,SSE,149,9.0,13.0,72,0.00,,,0.00,Wunderground v.1.15,2013-05-25 08:01:00,
2013-05-25 03:06:00,56.6,47.3,30.03,SSE,148,14.0,14.0,71,0.00,,,0.00,Wunderground v.1.15,2013-05-25 08:06:00,
2013-05-25 03:11:00,56.6,47.3,30.03,SSE,155,12.0,16.0,71,0.00,,,0.00,Wunderground v.1.15,2013-05-25 08:11:00,
2013-05-25 03:16:00,56.5,47.2,30.03,SE,140,8.0,16.0,71,0.00,,,0.00,Wunderground v.1.15,2013-05-25 08:16:00,
2013-05-25 03:21:00,56.4,47.1,30.03,SSE,147,14.0,14.0,71,0.00,,,0.00,Wunderground v.1.15,2013-05-25 08:21:00,
2013-05-25 03:26:00,56.4,47.1,30.02,SSE,161,10.0,15.0,71,0.00,,,0.00,Wunderground v.1.15,2013-05-25 08:26:00,
2013-05-25 03:31:00,56.2,47.3,30.03,SSE,159,8.0,12.0,72,0.00,,,0.00,Wunderground v.1.15,2013-05-25 08:31:00,
2013-05-25 03:36:00,56.2,47.3,30.03,SSE,150,6.0,12.0,72,0.00,,,0.00,Wunderground v.1.15,2013-05-25 08:36:00,
2013-05-25 03:41:00,56.1,47.2,30.03,SSE,151,11.0,11.0,72,0.00,,,0.00,Wunderground v.1.15,2013-05-25 08:41:00,
2013-05-25 03:46:00,56.1,47.2,30.03,SE,144,7.0,13.0,72,0.00,,,0.00,Wunderground v.1.15,2013-05-25 08:46:00,
2013-05-25 03:51:00,56.1,47.2,30.03,SSE,151,9.0,10.0,72,0.00,,,0.00,Wunderground v.1.15,2013-05-25 08:51:00,
2013-05-25 03:56:00,56.0,47.1,30.03,SE,141,9.0,12.0,72,0.00,,,0.00,Wunderground v.1.15,2013-05-25 08:56:00,
2013-05-25 04:01:00,56.0,47.5,30.03,SE,140,9.0,12.0,73,0.00,,,0.00,Wunderground v.1.15,2013-05-25 09:01:00,
2013-05-25 04:06:00,55.9,47.4,30.02,SSE,150,10.0,14.0,73,0.00,,,0.00,Wunderground v.1.15,2013-05-25 09:06:00,
2013-05-25 04:12:00,55.9,47.0,30.02,SE,140,9.0,14.0,72,0.00,,,0.00,Wunderground v.1.15,2013-05-25 09:12:00,
2013-05-25 04:17:00,55.8,46.9,30.01,SE,132,7.0,14.0,72,0.00,,,0.00,Wunderground v.1.15,2013-05-25 09:17:00,
2013-05-25 04:22:00,55.7,47.2,30.01,SE,136,8.0,9.0,73,0.00,,,0.00,Wunderground v.1.15,2013-05-25 09:22:00,
2013-05-25 04:27:00,55.3,47.2,30.01,SE,130,9.0,9.0,74,0.00,,,0.00,Wunderground v.1.15,2013-05-25 09:27:00,
2013-05-25 04:32:00,55.1,47.3,30.01,SE,130,7.0,10.0,75,0.00,,,0.00,Wunderground v.1.15,2013-05-25 09:32:00,
2013-05-25 04:37:00,55.1,47.3,30.00,SE,137,10.0,11.0,75,0.00,,,0.00,Wunderground v.1.15,2013-05-25 09:37:00,
2013-05-25 04:42:00,55.1,47.3,30.01,SE,132,6.0,13.0,75,0.00,,,0.00,Wunderground v.1.15,2013-05-25 09:42:00,
2013-05-25 04:47:00,55.2,47.1,30.01,SE,132,8.0,13.0,74,0.00,,,0.00,Wunderground v.1.15,2013-05-25 09:47:00,
2013-05-25 04:52:00,55.2,47.1,30.01,SE,135,7.0,12.0,74,0.00,,,0.00,Wunderground v.1.15,2013-05-25 09:52:00,
2013-05-25 04:57:00,55.2,47.1,30.01,SE,128,7.0,12.0,74,0.00,,,0.00,Wunderground v.1.15,2013-05-25 09:57:00,
2013-05-25 05:02:00,55.2,47.1,30.01,SE,132,8.0,12.0,74,0.00,,,0.00,Wunderground v.1.15,2013-05-25 10:02:00,
2013-05-25 05:07:00,55.2,47.1,30.02,SE,125,6.0,12.0,74,0.00,,,0.00,Wunderground v.1.15,2013-05-25 10:07:00,
2013-05-25 05:12:00,55.1,47.3,30.02,SE,130,8.0,10.0,75,0.00,,,0.00,Wunderground v.1.15,2013-05-25 10:12:00,
2013-05-25 05:17:00,55.1,47.3,30.02,SE,124,7.0,12.0,75,0.00,,,0.00,Wunderground v.1.15,2013-05-25 10:17:00,
2013-05-25 05:22:00,55.1,47.3,30.03,SE,136,8.0,10.0,75,0.00,,,0.00,Wunderground v.1.15,2013-05-25 10:22:00,
2013-05-25 05:27:00,55.0,47.2,30.04,SE,129,10.0,12.0,75,0.00,,,0.00,Wunderground v.1.15,2013-05-25 10:27:00,
2013-05-25 05:32:00,55.0,47.2,30.04,SE,128,6.0,15.0,75,0.00,,,0.00,Wunderground v.1.15,2013-05-25 10:32:00,
2013-05-25 05:37:00,54.5,47.4,30.04,ESE,123,11.0,15.0,77,0.00,,,0.00,Wunderground v.1.15,2013-05-25 10:37:00,
2013-05-25 05:42:00,54.1,47.4,30.04,SE,126,7.0,11.0,78,0.00,,,0.00,Wunderground v.1.15,2013-05-25 10:42:00,
2013-05-25 05:47:00,53.5,47.5,30.03,ESE,123,7.0,12.0,80,0.00,,,0.00,Wunderground v.1.15,2013-05-25 10:47:00,
2013-05-25 05:52:00,53.1,47.4,30.03,ESE,123,9.0,12.0,81,0.00,,,0.00,Wunderground v.1.15,2013-05-25 10:52:00,
2013-05-25 05:57:00,53.0,47.7,30.03,SE,127,4.0,13.0,82,0.00,,,0.00,Wunderground v.1.15,2013-05-25 10:57:00,
2013-05-25 06:02:00,53.0,47.7,30.03,SE,125,6.0,10.0,82,0.00,,,0.00,Wunderground v.1.15,2013-05-25 11:02:00,
2013-05-25 06:07:00,52.9,47.6,30.03,SE,125,6.0,13.0,82,0.00,,,0.00,Wunderground v.1.15,2013-05-25 11:07:00,
2013-05-25 06:12:00,52.8,47.8,30.03,SE,125,8.0,12.0,83,0.00,,,0.00,Wunderground v.1.15,2013-05-25 11:12:00,
2013-05-25 06:17:00,52.7,47.7,30.03,SE,131,11.0,12.0,83,0.00,,,0.00,Wunderground v.1.15,2013-05-25 11:17:00,
2013-05-25 06:22:00,52.8,47.8,30.03,SE,134,6.0,14.0,83,0.00,,,0.00,Wunderground v.1.15,2013-05-25 11:22:00,
2013-05-25 06:27:00,52.8,47.8,30.03,SE,130,7.0,14.0,83,0.00,,,0.00,Wunderground v.1.15,2013-05-25 11:27:00,
2013-05-25 06:32:00,52.8,47.8,30.03,SE,131,10.0,12.0,83,0.00,,,0.00,Wunderground v.1.15,2013-05-25 11:32:00,
2013-05-25 06:38:00,52.8,47.8,30.04,SE,136,8.0,12.0,83,0.00,,,0.00,Wunderground v.1.15,2013-05-25 11:38:00,
2013-05-25 06:43:00,52.8,47.8,30.04,SSE,155,6.0,13.0,83,0.00,,,0.00,Wunderground v.1.15,2013-05-25 11:43:00,
2013-05-25 06:48:00,52.7,47.7,30.04,SE,134,6.0,18.0,83,0.00,,,0.00,Wunderground v.1.15,2013-05-25 11:48:00,
2013-05-25 06:53:00,52.5,47.5,30.04,SE,130,11.0,17.0,83,0.00,,,0.00,Wunderground v.1.15,2013-05-25 11:53:00,
2013-05-25 06:58:00,52.4,47.7,30.04,SE,126,10.0,17.0,84,0.00,,,0.01,Wunderground v.1.15,2013-05-25 11:58:00,
2013-05-25 07:03:00,52.2,47.5,30.03,SE,128,10.0,15.0,84,0.00,,,0.01,Wunderground v.1.15,2013-05-25 12:03:00,
2013-05-25 07:08:00,52.1,47.7,30.03,SE,138,9.0,15.0,85,0.00,,,0.01,Wunderground v.1.15,2013-05-25 12:08:00,
2013-05-25 07:13:00,52.2,47.8,30.03,ESE,121,9.0,16.0,85,0.00,,,0.01,Wunderground v.1.15,2013-05-25 12:13:00,
2013-05-25 07:18:00,52.2,47.8,30.03,SE,126,7.0,16.0,85,0.00,,,0.01,Wunderground v.1.15,2013-05-25 12:18:00,
2013-05-25 07:24:00,52.2,48.1,30.03,ESE,121,7.0,13.0,86,0.00,,,0.01,Wunderground v.1.15,2013-05-25 12:24:00,
2013-05-25 07:29:00,52.2,48.1,30.04,SE,137,11.0,17.0,86,0.00,,,0.01,Wunderground v.1.15,2013-05-25 12:29:00,
2013-05-25 07:34:00,52.1,47.7,30.04,SE,126,5.0,19.0,85,0.00,,,0.01,Wunderground v.1.15,2013-05-25 12:34:00,
2013-05-25 07:39:00,52.2,47.8,30.04,SE,126,10.0,19.0,85,0.00,,,0.01,Wunderground v.1.15,2013-05-25 12:39:00,
2013-05-25 07:44:00,52.2,47.8,30.04,SE,129,11.0,16.0,85,0.00,,,0.01,Wunderground v.1.15,2013-05-25 12:44:00,
2013-05-25 07:49:00,52.2,47.8,30.04,ESE,121,11.0,16.0,85,0.00,,,0.01,Wunderground v.1.15,2013-05-25 12:49:00,
2013-05-25 07:54:00,52.2,47.8,30.04,SE,126,11.0,18.0,85,0.00,,,0.01,Wunderground v.1.15,2013-05-25 12:54:00,
2013-05-25 07:59:00,52.0,47.6,30.04,ESE,114,12.0,20.0,85,0.00,,,0.01,Wunderground v.1.15,2013-05-25 12:59:00,
2013-05-25 08:04:00,51.8,47.7,30.04,ESE,121,9.0,20.0,86,0.00,,,0.01,Wunderground v.1.15,2013-05-25 13:04:00,
2013-05-25 08:09:00,51.6,47.5,30.04,SE,133,13.0,22.0,86,0.00,,,0.01,Wunderground v.1.15,2013-05-25 13:09:00,
2013-05-25 08:14:00,51.6,47.5,30.04,ESE,117,14.0,20.0,86,0.00,,,0.01,Wunderground v.1.15,2013-05-25 13:14:00,
2013-05-25 08:19:00,51.5,47.5,30.04,ESE,114,12.0,20.0,86,0.00,,,0.01,Wunderground v.1.15,2013-05-25 13:19:00,
2013-05-25 08:24:00,51.4,47.4,30.04,SE,130,13.0,21.0,86,0.00,,,0.01,Wunderground v.1.15,2013-05-25 13:24:00,
2013-05-25 08:29:00,51.4,47.7,30.05,SE,128,11.0,21.0,87,0.00,,,0.01,Wunderground v.1.15,2013-05-25 13:29:00,
2013-05-25 08:34:00,51.4,47.7,30.05,SE,130,10.0,19.0,87,0.00,,,0.01,Wunderground v.1.15,2013-05-25 13:34:00,
2013-05-25 08:39:00,51.4,47.7,30.04,ESE,117,13.0,19.0,87,0.00,,,0.01,Wunderground v.1.15,2013-05-25 13:39:00,
2013-05-25 08:44:00,51.4,47.7,30.05,ESE,121,11.0,18.0,87,0.00,,,0.01,Wunderground v.1.15,2013-05-25 13:44:00,
2013-05-25 08:49:00,51.4,47.7,30.05,SE,126,9.0,19.0,87,0.00,,,0.01,Wunderground v.1.15,2013-05-25 13:49:00,
2013-05-25 08:54:00,51.4,47.7,30.05,ESE,110,13.0,20.0,87,0.00,,,0.01,Wunderground v.1.15,2013-05-25 13:54:00,
2013-05-25 08:59:00,51.4,48.0,30.04,ESE,111,14.0,20.0,88,0.00,,,0.01,Wunderground v.1.15,2013-05-25 13:59:00,
2013-05-25 09:04:00,51.4,48.0,30.04,SE,126,7.0,19.0,88,0.00,,,0.01,Wunderground v.1.15,2013-05-25 14:04:00,
2013-05-25 09:09:00,51.4,48.0,30.04,SE,128,15.0,19.0,88,0.00,,,0.01,Wunderground v.1.15,2013-05-25 14:09:00,
2013-05-25 09:14:00,51.4,48.0,30.04,ESE,123,9.0,18.0,88,0.00,,,0.01,Wunderground v.1.15,2013-05-25 14:14:00,
2013-05-25 09:19:00,51.4,48.0,30.04,SE,127,15.0,19.0,88,0.00,,,0.01,Wunderground v.1.15,2013-05-25 14:19:00,
2013-05-25 09:24:00,51.5,48.1,30.04,ESE,113,14.0,18.0,88,0.00,,,0.01,Wunderground v.1.15,2013-05-25 14:24:00,
2013-05-25 09:29:00,51.6,48.2,30.05,ESE,118,12.0,19.0,88,0.00,,,0.01,Wunderground v.1.15,2013-05-25 14:29:00,
2013-05-25 09:34:00,51.6,48.2,30.05,SE,128,10.0,16.0,88,0.00,,,0.01,Wunderground v.1.15,2013-05-25 14:34:00,
2013-05-25 09:39:00,51.8,48.4,30.05,ESE,121,10.0,21.0,88,0.00,,,0.01,Wunderground v.1.15,2013-05-25 14:39:00,
2013-05-25 09:44:00,51.8,48.4,30.05,SE,132,15.0,18.0,88,0.00,,,0.01,Wunderground v.1.15,2013-05-25 14:44:00,
2013-05-25 09:49:00,52.0,48.6,30.06,SE,133,10.0,18.0,88,0.00,,,0.01,Wunderground v.1.15,2013-05-25 14:49:00,
2013-05-25 09:54:00,51.9,48.5,30.06,SE,126,16.0,21.0,88,0.00,,,0.01,Wunderground v.1.15,2013-05-25 14:54:00,
2013-05-25 09:59:00,52.0,48.6,30.06,SE,129,15.0,21.0,88,0.00,,,0.01,Wunderground v.1.15,2013-05-25 14:59:00,
2013-05-25 10:04:00,52.0,48.6,30.06,SE,129,12.0,16.0,88,0.00,,,0.01,Wunderground v.1.15,2013-05-25 15:04:00,
2013-05-25 10:09:00,52.2,48.8,30.06,ESE,119,14.0,14.0,88,0.00,,,0.01,Wunderground v.1.15,2013-05-25 15:09:00,
2013-05-25 10:14:00,52.3,48.9,30.06,SE,135,15.0,18.0,88,0.00,,,0.01,Wunderground v.1.15,2013-05-25 15:14:00,
2013-05-25 10:20:00,52.5,49.0,30.06,ESE,123,8.0,13.0,88,0.00,,,0.01,Wunderground v.1.15,2013-05-25 15:20:00,
2013-05-25 10:26:00,52.4,48.6,30.06,SE,138,14.0,18.0,87,0.00,,,0.01,Wunderground v.1.15,2013-05-25 15:26:00,
2013-05-25 10:31:00,52.5,48.7,30.07,SE,136,14.0,14.0,87,0.00,,,0.01,Wunderground v.1.15,2013-05-25 15:31:00,
2013-05-25 10:36:00,52.6,48.8,30.06,SE,133,10.0,20.0,87,0.00,,,0.01,Wunderground v.1.15,2013-05-25 15:36:00,
2013-05-25 10:41:00,52.8,49.0,30.06,SE,134,12.0,14.0,87,0.00,,,0.01,Wunderground v.1.15,2013-05-25 15:41:00,
2013-05-25 10:46:00,53.0,49.2,30.06,SE,142,18.0,18.0,87,0.00,,,0.01,Wunderground v.1.15,2013-05-25 15:46:00,
2013-05-25 10:51:00,53.1,49.3,30.06,SE,143,12.0,20.0,87,0.00,,,0.01,Wunderground v.1.15,2013-05-25 15:51:00,
2013-05-25 10:56:00,53.1,49.3,30.06,SE,132,19.0,21.0,87,0.00,,,0.01,Wunderground v.1.15,2013-05-25 15:56:00,
2013-05-25 11:01:00,53.0,49.2,30.06,SE,141,14.0,23.0,87,0.00,,,0.01,Wunderground v.1.15,2013-05-25 16:01:00,
2013-05-25 11:06:00,53.3,49.5,30.06,SE,132,16.0,23.0,87,0.00,,,0.01,Wunderground v.1.15,2013-05-25 16:06:00,
2013-05-25 11:11:00,53.1,49.3,30.05,SE,134,10.0,25.0,87,0.00,,,0.01,Wunderground v.1.15,2013-05-25 16:11:00,
2013-05-25 11:16:00,53.1,49.3,30.05,SE,128,20.0,25.0,87,0.00,,,0.01,Wunderground v.1.15,2013-05-25 16:16:00,
2013-05-25 11:22:00,53.3,49.5,30.05,SE,125,16.0,21.0,87,0.00,,,0.01,Wunderground v.1.15,2013-05-25 16:22:00,
2013-05-25 11:27:00,53.4,49.6,30.05,ESE,123,17.0,21.0,87,0.00,,,0.01,Wunderground v.1.15,2013-05-25 16:27:00,
2013-05-25 11:32:00,53.4,49.3,30.05,SSE,149,18.0,24.0,86,0.00,,,0.01,Wunderground v.1.15,2013-05-25 16:32:00,
2013-05-25 11:37:00,53.6,49.5,30.05,SE,133,12.0,24.0,86,0.00,,,0.01,Wunderground v.1.15,2013-05-25 16:37:00,
2013-05-25 11:42:00,54.0,49.9,30.05,SSE,157,16.0,19.0,86,0.00,,,0.01,Wunderground v.1.15,2013-05-25 16:42:00,
2013-05-25 11:47:00,54.5,50.4,30.05,SSE,157,14.0,19.0,86,0.00,,,0.01,Wunderground v.1.15,2013-05-25 16:47:00,
2013-05-25 11:52:00,54.7,50.3,30.04,SE,141,16.0,20.0,85,0.00,,,0.01,Wunderground v.1.15,2013-05-25 16:52:00,
2013-05-25 11:57:00,55.4,51.0,30.04,SE,138,14.0,21.0,85,0.00,,,0.01,Wunderground v.1.15,2013-05-25 16:57:00,
2013-05-25 12:02:00,55.7,50.9,30.04,SE,132,17.0,20.0,84,0.00,,,0.01,Wunderground v.1.15,2013-05-25 17:02:00,
2013-05-25 12:07:00,56.2,51.1,30.04,SE,146,10.0,22.0,83,0.00,,,0.01,Wunderground v.1.15,2013-05-25 17:07:00,
2013-05-25 12:12:00,56.9,51.5,30.04,SE,132,16.0,23.0,82,0.00,,,0.01,Wunderground v.1.15,2013-05-25 17:12:00,
2013-05-25 12:17:00,57.4,51.9,30.04,SSE,149,16.0,24.0,82,0.00,,,0.01,Wunderground v.1.15,2013-05-25 17:17:00,
2013-05-25 12:22:00,58.0,52.2,30.04,SE,137,8.0,18.0,81,0.00,,,0.01,Wunderground v.1.15,2013-05-25 17:22:00,
2013-05-25 12:27:00,58.3,52.5,30.03,SE,129,11.0,20.0,81,0.00,,,0.01,Wunderground v.1.15,2013-05-25 17:27:00,
2013-05-25 12:32:00,59.0,52.8,30.03,SE,132,13.0,22.0,80,0.00,,,0.01,Wunderground v.1.15,2013-05-25 17:32:00,
2013-05-25 12:37:00,59.6,53.1,30.03,SE,136,13.0,22.0,79,0.00,,,0.01,Wunderground v.1.15,2013-05-25 17:37:00,
2013-05-25 12:42:00,59.8,53.3,30.03,SE,140,15.0,21.0,79,0.00,,,0.01,Wunderground v.1.15,2013-05-25 17:42:00,
2013-05-25 12:47:00,60.0,53.1,30.03,SSE,156,20.0,23.0,78,0.00,,,0.01,Wunderground v.1.15,2013-05-25 17:47:00,
2013-05-25 12:52:00,60.2,53.3,30.03,SE,136,18.0,21.0,78,0.00,,,0.01,Wunderground v.1.15,2013-05-25 17:52:00,
2013-05-25 12:57:00,61.0,54.1,30.03,SE,130,9.0,23.0,78,0.00,,,0.01,Wunderground v.1.15,2013-05-25 17:57:00,
2013-05-25 13:02:00,61.1,53.5,30.03,SE,135,16.0,24.0,76,0.00,,,0.01,Wunderground v.1.15,2013-05-25 18:02:00,
2013-05-25 13:07:00,60.8,53.9,30.03,SE,132,16.0,24.0,78,0.00,,,0.01,Wunderground v.1.15,2013-05-25 18:07:00,
2013-05-25 13:12:00,60.4,53.5,30.04,SE,129,20.0,20.0,78,0.00,,,0.01,Wunderground v.1.15,2013-05-25 18:12:00,
2013-05-25 13:17:00,60.4,53.5,30.04,SE,142,15.0,21.0,78,0.00,,,0.01,Wunderground v.1.15,2013-05-25 18:17:00,
2013-05-25 13:23:00,61.1,53.8,30.04,SE,141,18.0,22.0,77,0.00,,,0.01,Wunderground v.1.15,2013-05-25 18:23:00,
2013-05-25 13:28:00,61.1,53.8,30.03,ESE,119,13.0,22.0,77,0.00,,,0.01,Wunderground v.1.15,2013-05-25 18:28:00,
2013-05-25 13:33:00,60.9,53.6,30.04,ESE,109,16.0,21.0,77,0.00,,,0.01,Wunderground v.1.15,2013-05-25 18:33:00,
2013-05-25 13:38:00,60.3,53.8,30.03,SE,140,17.0,21.0,79,0.00,,,0.01,Wunderground v.1.15,2013-05-25 18:38:00,
2013-05-25 13:43:00,61.0,54.4,30.03,SE,126,12.0,19.0,79,0.00,,,0.01,Wunderground v.1.15,2013-05-25 18:43:00,
2013-05-25 13:48:00,61.7,54.8,30.04,SE,132,16.0,20.0,78,0.00,,,0.01,Wunderground v.1.15,2013-05-25 18:48:00,
2013-05-25 13:53:00,61.6,54.3,30.04,SE,129,17.0,20.0,77,0.00,,,0.01,Wunderground v.1.15,2013-05-25 18:53:00,
2013-05-25 13:58:00,61.5,54.6,30.04,SE,132,17.0,21.0,78,0.00,,,0.01,Wunderground v.1.15,2013-05-25 18:58:00,
2013-05-25 14:02:00,60.7,53.8,30.04,ESE,119,14.0,20.0,78,0.00,,,0.01,Wunderground v.1.15,2013-05-25 19:02:00,
2013-05-25 14:08:00,60.3,54.1,30.04,ESE,121,15.0,21.0,80,0.00,,,0.01,Wunderground v.1.15,2013-05-25 19:08:00,
2013-05-25 14:13:00,59.5,53.0,30.04,ESE,115,15.0,20.0,79,0.00,,,0.01,Wunderground v.1.15,2013-05-25 19:13:00,
2013-05-25 14:18:00,59.4,52.9,30.04,ESE,121,17.0,20.0,79,0.00,,,0.01,Wunderground v.1.15,2013-05-25 19:18:00,
2013-05-25 14:23:00,59.0,52.8,30.04,ESE,119,15.0,17.0,80,0.00,,,0.01,Wunderground v.1.15,2013-05-25 19:23:00,
2013-05-25 14:28:00,59.0,53.2,30.04,SE,125,12.0,20.0,81,0.00,,,0.01,Wunderground v.1.15,2013-05-25 19:28:00,
2013-05-25 14:33:00,58.8,53.0,30.04,ESE,121,14.0,17.0,81,0.00,,,0.01,Wunderground v.1.15,2013-05-25 19:33:00,
2013-05-25 14:38:00,58.3,52.5,30.04,East,101,11.0,18.0,81,0.00,,,0.01,Wunderground v.1.15,2013-05-25 19:38:00,
2013-05-25 14:43:00,58.1,52.6,30.04,ESE,114,11.0,19.0,82,0.00,,,0.01,Wunderground v.1.15,2013-05-25 19:43:00,
2013-05-25 14:48:00,57.8,52.3,30.05,ESE,110,18.0,19.0,82,0.00,,,0.01,Wunderground v.1.15,2013-05-25 19:48:00,
2013-05-25 14:53:00,57.4,52.3,30.04,ESE,115,15.0,22.0,83,0.00,,,0.01,Wunderground v.1.15,2013-05-25 19:53:00,
2013-05-25 14:58:00,57.3,52.2,30.05,SE,126,18.0,22.0,83,0.00,,,0.01,Wunderground v.1.15,2013-05-25 19:58:00,
2013-05-25 15:03:00,57.1,52.0,30.05,ESE,116,16.0,18.0,83,0.00,,,0.01,Wunderground v.1.15,2013-05-25 20:03:00,
2013-05-25 15:08:00,57.3,52.2,30.05,ESE,117,17.0,18.0,83,0.00,,,0.01,Wunderground v.1.15,2013-05-25 20:08:00,
2013-05-25 15:13:00,56.9,51.8,30.04,ESE,107,13.0,17.0,83,0.00,,,0.01,Wunderground v.1.15,2013-05-25 20:13:00,
2013-05-25 15:18:00,56.4,51.6,30.04,ESE,110,15.0,21.0,84,0.00,,,0.01,Wunderground v.1.15,2013-05-25 20:18:00,
2013-05-25 15:23:00,56.1,51.7,30.04,East,101,18.0,19.0,85,0.00,,,0.01,Wunderground v.1.15,2013-05-25 20:23:00,
2013-05-25 15:28:00,55.8,51.4,30.04,ESE,118,19.0,21.0,85,0.00,,,0.01,Wunderground v.1.15,2013-05-25 20:28:00,
2013-05-25 15:33:00,55.7,51.3,30.05,ESE,117,13.0,21.0,85,0.00,,,0.01,Wunderground v.1.15,2013-05-25 20:33:00,
2013-05-25 15:38:00,55.5,51.1,30.05,ESE,122,16.0,22.0,85,0.00,,,0.01,Wunderground v.1.15,2013-05-25 20:38:00,
2013-05-25 15:43:00,55.5,51.1,30.05,ESE,116,14.0,24.0,85,0.00,,,0.01,Wunderground v.1.15,2013-05-25 20:43:00,
2013-05-25 15:48:00,55.5,51.4,30.05,ESE,105,14.0,24.0,86,0.00,,,0.01,Wunderground v.1.15,2013-05-25 20:48:00,
2013-05-25 15:53:00,55.6,51.5,30.05,ESE,121,11.0,22.0,86,0.00,,,0.01,Wunderground v.1.15,2013-05-25 20:53:00,
2013-05-25 15:58:00,55.4,51.3,30.05,ESE,117,13.0,22.0,86,0.00,,,0.01,Wunderground v.1.15,2013-05-25 20:58:00,
2013-05-25 16:03:00,55.3,51.2,30.05,ESE,107,19.0,19.0,86,0.00,,,0.01,Wunderground v.1.15,2013-05-25 21:03:00,
2013-05-25 16:08:00,55.5,51.4,30.05,ESE,115,17.0,20.0,86,0.00,,,0.01,Wunderground v.1.15,2013-05-25 21:08:00,
2013-05-25 16:13:00,55.7,51.6,30.05,ESE,106,17.0,21.0,86,0.00,,,0.01,Wunderground v.1.15,2013-05-25 21:13:00,
2013-05-25 16:18:00,55.4,51.3,30.05,ESE,103,20.0,21.0,86,0.00,,,0.01,Wunderground v.1.15,2013-05-25 21:18:00,
2013-05-25 16:24:00,54.8,50.7,30.05,ESE,121,14.0,18.0,86,0.00,,,0.01,Wunderground v.1.15,2013-05-25 21:24:00,
2013-05-25 16:28:00,54.7,50.9,30.05,ESE,114,12.0,18.0,87,0.00,,,0.01,Wunderground v.1.15,2013-05-25 21:28:00,
2013-05-25 16:33:00,54.8,51.0,30.05,SE,129,13.0,21.0,87,0.00,,,0.01,Wunderground v.1.15,2013-05-25 21:33:00,
2013-05-25 16:38:00,54.9,51.1,30.05,ESE,119,11.0,21.0,87,0.00,,,0.01,Wunderground v.1.15,2013-05-25 21:38:00,
2013-05-25 16:43:00,55.0,50.9,30.04,ESE,110,17.0,22.0,86,0.00,,,0.01,Wunderground v.1.15,2013-05-25 21:43:00,
2013-05-25 16:48:00,55.0,50.9,30.04,ESE,108,18.0,22.0,86,0.00,,,0.01,Wunderground v.1.15,2013-05-25 21:48:00,
2013-05-25 16:53:00,54.6,50.5,30.05,SE,125,11.0,18.0,86,0.00,,,0.01,Wunderground v.1.15,2013-05-25 21:53:00,
2013-05-25 16:58:00,54.7,50.9,30.05,ESE,114,15.0,19.0,87,0.00,,,0.01,Wunderground v.1.15,2013-05-25 21:58:00,
2013-05-25 17:03:00,54.8,51.0,30.05,SE,131,14.0,18.0,87,0.00,,,0.01,Wunderground v.1.15,2013-05-25 22:03:00,
2013-05-25 17:08:00,54.6,50.8,30.05,ESE,111,11.0,18.0,87,0.00,,,0.01,Wunderground v.1.15,2013-05-25 22:08:00,
2013-05-25 17:13:00,54.4,50.6,30.05,ESE,110,11.0,17.0,87,0.00,,,0.01,Wunderground v.1.15,2013-05-25 22:13:00,
2013-05-25 17:18:00,54.2,50.4,30.05,ESE,123,10.0,17.0,87,0.00,,,0.01,Wunderground v.1.15,2013-05-25 22:18:00,
2013-05-25 17:23:00,53.9,50.1,30.05,ESE,111,18.0,23.0,87,0.00,,,0.01,Wunderground v.1.15,2013-05-25 22:23:00,
2013-05-25 17:29:00,53.8,50.0,30.05,SE,126,13.0,23.0,87,0.00,,,0.01,Wunderground v.1.15,2013-05-25 22:29:00,
2013-05-25 17:34:00,53.8,50.3,30.05,ESE,122,10.0,18.0,88,0.00,,,0.01,Wunderground v.1.15,2013-05-25 22:34:00,
2013-05-25 17:39:00,53.6,50.1,30.05,ESE,119,14.0,21.0,88,0.00,,,0.01,Wunderground v.1.15,2013-05-25 22:39:00,
2013-05-25 17:44:00,53.6,50.1,30.05,ESE,121,14.0,18.0,88,0.00,,,0.01,Wunderground v.1.15,2013-05-25 22:44:00,
2013-05-25 17:49:00,53.6,50.1,30.05,ESE,112,10.0,22.0,88,0.00,,,0.01,Wunderground v.1.15,2013-05-25 22:49:00,
2013-05-25 17:54:00,53.6,50.1,30.04,ESE,103,15.0,17.0,88,0.00,,,0.01,Wunderground v.1.15,2013-05-25 22:54:00,
2013-05-25 17:59:00,53.5,50.0,30.05,ESE,114,11.0,19.0,88,0.00,,,0.01,Wunderground v.1.15,2013-05-25 22:59:00,
2013-05-25 18:04:00,53.3,49.8,30.05,ESE,115,14.0,19.0,88,0.00,,,0.01,Wunderground v.1.15,2013-05-25 23:04:00,
2013-05-25 18:09:00,53.2,49.7,30.04,ESE,110,12.0,19.0,88,0.00,,,0.01,Wunderground v.1.15,2013-05-25 23:09:00,
2013-05-25 18:14:00,52.9,49.7,30.05,ESE,104,11.0,19.0,89,0.00,,,0.01,Wunderground v.1.15,2013-05-25 23:14:00,
2013-05-25 18:19:00,52.9,49.7,30.05,ESE,118,13.0,19.0,89,0.00,,,0.01,Wunderground v.1.15,2013-05-25 23:19:00,
2013-05-25 18:24:00,53.0,49.8,30.05,SE,126,14.0,17.0,89,0.00,,,0.01,Wunderground v.1.15,2013-05-25 23:24:00,
2013-05-25 18:29:00,53.2,50.0,30.04,ESE,119,12.0,19.0,89,0.00,,,0.01,Wunderground v.1.15,2013-05-25 23:29:00,
2013-05-25 18:34:00,53.3,50.1,30.05,SE,131,11.0,19.0,89,0.00,,,0.01,Wunderground v.1.15,2013-05-25 23:34:00,
2013-05-25 18:39:00,53.5,50.0,30.04,ESE,115,7.0,13.0,88,0.00,,,0.01,Wunderground v.1.15,2013-05-25 23:39:00,
2013-05-25 18:44:00,53.4,49.9,30.04,East,101,11.0,16.0,88,0.00,,,0.01,Wunderground v.1.15,2013-05-25 23:44:00,
2013-05-25 18:49:00,53.1,49.6,30.05,ESE,119,13.0,13.0,88,0.00,,,0.01,Wunderground v.1.15,2013-05-25 23:49:00,
2013-05-25 18:54:00,52.9,49.4,30.05,ESE,112,15.0,19.0,88,0.00,,,0.01,Wunderground v.1.15,2013-05-25 23:54:00,
2013-05-25 19:00:00,52.6,49.4,30.05,ESE,103,18.0,18.0,89,0.00,,,0.01,Wunderground v.1.15,2013-05-26 00:00:00,
2013-05-25 19:06:00,52.5,49.4,30.05,ESE,107,13.0,19.0,89,0.00,,,0.01,Wunderground v.1.15,2013-05-26 00:06:00,
2013-05-25 19:11:00,52.4,49.3,30.05,ESE,107,14.0,16.0,89,0.00,,,0.01,Wunderground v.1.15,2013-05-26 00:11:00,
2013-05-25 19:16:00,52.2,49.1,30.05,ESE,112,13.0,22.0,89,0.00,,,0.01,Wunderground v.1.15,2013-05-26 00:16:00,
2013-05-25 19:21:00,52.1,49.3,30.04,ESE,117,17.0,21.0,90,0.00,,,0.01,Wunderground v.1.15,2013-05-26 00:21:00,
2013-05-25 19:26:00,52.1,49.3,30.05,ESE,110,9.0,21.0,90,0.00,,,0.01,Wunderground v.1.15,2013-05-26 00:26:00,
2013-05-25 19:31:00,52.0,49.2,30.05,ESE,115,14.0,17.0,90,0.00,,,0.01,Wunderground v.1.15,2013-05-26 00:31:00,
2013-05-25 19:36:00,51.8,49.0,30.06,ESE,119,15.0,17.0,90,0.00,,,0.01,Wunderground v.1.15,2013-05-26 00:36:00,
2013-05-25 19:41:00,51.7,48.9,30.05,ESE,102,8.0,16.0,90,0.00,,,0.01,Wunderground v.1.15,2013-05-26 00:41:00,
2013-05-25 19:46:00,51.5,48.7,30.05,East,101,19.0,23.0,90,0.00,,,0.01,Wunderground v.1.15,2013-05-26 00:46:00,
2013-05-25 19:51:00,51.1,48.3,30.05,ESE,110,14.0,18.0,90,0.00,,,0.01,Wunderground v.1.15,2013-05-26 00:51:00,
2013-05-25 19:56:00,51.0,48.2,30.05,ESE,113,10.0,19.0,90,0.00,,,0.01,Wunderground v.1.15,2013-05-26 00:56:00,
2013-05-25 20:01:00,50.8,48.0,30.06,SE,124,14.0,18.0,90,0.00,,,0.01,Wunderground v.1.15,2013-05-26 01:01:00,
2013-05-25 20:06:00,50.6,48.1,30.05,East,96,15.0,21.0,91,0.00,,,0.01,Wunderground v.1.15,2013-05-26 01:06:00,
2013-05-25 20:11:00,50.5,48.0,30.05,East,98,10.0,16.0,91,0.00,,,0.01,Wunderground v.1.15,2013-05-26 01:11:00,
2013-05-25 20:16:00,50.5,48.0,30.05,East,100,10.0,18.0,91,0.00,,,0.01,Wunderground v.1.15,2013-05-26 01:16:00,
2013-05-25 20:21:00,50.4,47.9,30.05,ESE,106,16.0,21.0,91,0.00,,,0.01,Wunderground v.1.15,2013-05-26 01:21:00,
2013-05-25 20:26:00,50.2,47.7,30.06,ESE,110,14.0,21.0,91,0.00,,,0.01,Wunderground v.1.15,2013-05-26 01:26:00,
2013-05-25 20:31:00,50.1,47.6,30.05,ESE,111,14.0,18.0,91,0.00,,,0.01,Wunderground v.1.15,2013-05-26 01:31:00,
2013-05-25 20:37:00,50.0,48.6,30.05,ESE,109,11.0,19.0,95,0.00,,,0.01,Wunderground v.1.15,2013-05-26 01:37:00,
2013-05-25 20:42:00,49.9,47.4,30.05,ESE,107,19.0,22.0,91,0.00,,,0.01,Wunderground v.1.15,2013-05-26 01:42:00,
2013-05-25 20:47:00,49.9,47.4,30.05,ESE,109,14.0,23.0,91,0.00,,,0.01,Wunderground v.1.15,2013-05-26 01:47:00,
2013-05-25 20:52:00,49.9,47.7,30.06,ESE,106,11.0,18.0,92,0.00,,,0.01,Wunderground v.1.15,2013-05-26 01:52:00,
2013-05-25 20:57:00,49.7,47.5,30.05,ESE,111,14.0,23.0,92,0.00,,,0.01,Wunderground v.1.15,2013-05-26 01:57:00,
2013-05-25 21:02:00,49.7,47.5,30.05,ESE,113,19.0,19.0,92,0.00,,,0.01,Wunderground v.1.15,2013-05-26 02:02:00,
2013-05-25 21:07:00,49.7,47.5,30.06,ESE,102,13.0,22.0,92,0.00,,,0.01,Wunderground v.1.15,2013-05-26 02:07:00,
2013-05-25 21:12:00,49.5,47.3,30.06,ESE,115,14.0,21.0,92,0.00,,,0.01,Wunderground v.1.15,2013-05-26 02:12:00,
2013-05-25 21:17:00,49.4,47.2,30.07,ESE,109,12.0,23.0,92,0.00,,,0.01,Wunderground v.1.15,2013-05-26 02:17:00,
2013-05-25 21:22:00,49.5,47.3,30.07,ESE,118,15.0,21.0,92,0.00,,,0.01,Wunderground v.1.15,2013-05-26 02:22:00,
2013-05-25 21:27:00,49.5,47.3,30.07,ESE,115,15.0,22.0,92,0.00,,,0.01,Wunderground v.1.15,2013-05-26 02:27:00,
2013-05-25 21:32:00,49.5,47.3,30.07,ESE,111,13.0,19.0,92,0.00,,,0.01,Wunderground v.1.15,2013-05-26 02:32:00,
2013-05-25 21:37:00,49.5,47.3,30.07,ESE,114,17.0,23.0,92,0.00,,,0.01,Wunderground v.1.15,2013-05-26 02:37:00,
2013-05-25 21:42:00,49.4,47.2,30.07,ESE,113,10.0,19.0,92,0.00,,,0.01,Wunderground v.1.15,2013-05-26 02:42:00,
2013-05-25 21:47:00,49.4,47.2,30.07,SE,124,17.0,19.0,92,0.00,,,0.01,Wunderground v.1.15,2013-05-26 02:47:00,
2013-05-25 21:52:00,49.4,47.2,30.08,ESE,103,14.0,19.0,92,0.00,,,0.01,Wunderground v.1.15,2013-05-26 02:52:00,
2013-05-25 21:57:00,49.3,47.1,30.08,East,89,17.0,19.0,92,0.00,,,0.01,Wunderground v.1.15,2013-05-26 02:57:00,
2013-05-25 22:02:00,49.2,47.0,30.08,ESE,103,12.0,19.0,92,0.00,,,0.01,Wunderground v.1.15,2013-05-26 03:02:00,
2013-05-25 22:07:00,49.2,47.0,30.08,ESE,121,18.0,19.0,92,0.00,,,0.01,Wunderground v.1.15,2013-05-26 03:07:00,
2013-05-25 22:12:00,49.2,47.0,30.08,SE,126,12.0,18.0,92,0.00,,,0.01,Wunderground v.1.15,2013-05-26 03:12:00,
2013-05-25 22:17:00,49.1,46.9,30.08,ESE,111,13.0,21.0,92,0.00,,,0.01,Wunderground v.1.15,2013-05-26 03:17:00,
2013-05-25 22:22:00,49.0,46.8,30.08,ESE,115,14.0,18.0,92,0.00,,,0.01,Wunderground v.1.15,2013-05-26 03:22:00,
2013-05-25 22:27:00,49.0,46.8,30.08,ESE,115,12.0,18.0,92,0.00,,,0.01,Wunderground v.1.15,2013-05-26 03:27:00,
2013-05-25 22:32:00,49.0,46.8,30.08,ESE,102,14.0,19.0,92,0.00,,,0.01,Wunderground v.1.15,2013-05-26 03:32:00,
2013-05-25 22:38:00,49.0,46.8,30.08,ESE,114,18.0,24.0,92,0.00,,,0.01,Wunderground v.1.15,2013-05-26 03:38:00,
2013-05-25 22:43:00,49.0,46.8,30.07,SE,129,15.0,23.0,92,0.00,,,0.01,Wunderground v.1.15,2013-05-26 03:43:00,
2013-05-25 22:48:00,49.0,46.8,30.07,ESE,122,16.0,24.0,92,0.00,,,0.01,Wunderground v.1.15,2013-05-26 03:48:00,
2013-05-25 22:53:00,48.9,46.7,30.07,ESE,113,14.0,20.0,92,0.00,,,0.01,Wunderground v.1.15,2013-05-26 03:53:00,
2013-05-25 22:58:00,48.9,46.7,30.06,SE,128,13.0,21.0,92,0.00,,,0.01,Wunderground v.1.15,2013-05-26 03:58:00,
2013-05-25 23:01:00,48.9,46.7,30.06,ESE,117,14.0,16.0,92,0.00,,,0.01,Wunderground v.1.15,2013-05-26 04:01:00,
2013-05-25 23:02:00,48.9,46.7,30.06,ESE,111,14.0,18.0,92,0.00,,,0.01,Wunderground v.1.15,2013-05-26 04:02:00,
2013-05-25 23:07:00,48.8,46.6,30.05,ESE,113,21.0,24.0,92,0.00,,,0.01,Wunderground v.1.15,2013-05-26 04:07:00,
2013-05-25 23:12:00,48.8,46.9,30.05,ESE,120,13.0,22.0,93,0.00,,,0.01,Wunderground v.1.15,2013-05-26 04:12:00,
2013-05-25 23:17:00,48.7,46.8,30.04,ESE,105,17.0,22.0,93,0.00,,,0.01,Wunderground v.1.15,2013-05-26 04:17:00,
2013-05-25 23:22:00,48.7,46.8,30.05,ESE,107,18.0,21.0,93,0.00,,,0.01,Wunderground v.1.15,2013-05-26 04:22:00,
2013-05-25 23:27:00,48.7,46.8,30.05,ESE,111,13.0,22.0,93,0.00,,,0.01,Wunderground v.1.15,2013-05-26 04:27:00,
2013-05-25 23:32:00,48.7,46.8,30.06,ESE,114,8.0,16.0,93,0.00,,,0.01,Wunderground v.1.15,2013-05-26 04:32:00,
2013-05-25 23:37:00,48.6,46.7,30.05,ESE,107,11.0,21.0,93,0.00,,,0.01,Wunderground v.1.15,2013-05-26 04:37:00,
2013-05-25 23:42:00,48.6,46.7,30.05,ESE,121,16.0,17.0,93,0.00,,,0.01,Wunderground v.1.15,2013-05-26 04:42:00,
2013-05-25 23:47:00,48.6,46.7,30.06,SE,126,13.0,19.0,93,0.00,,,0.01,Wunderground v.1.15,2013-05-26 04:47:00,
2013-05-25 23:52:00,48.7,46.8,30.06,ESE,123,17.0,23.0,93,0.00,,,0.01,Wunderground v.1.15,2013-05-26 04:52:00,
2013-05-25 23:57:00,48.7,46.8,30.04,ESE,117,14.0,23.0,93,0.00,,,0.01,Wunderground v.1.15,2013-05-26 04:57:00,